Regional Weather Roundup
Issued by NWS

Home | Current Version | Previous Version | Graphics & Text | Print | Product List | Glossary On
Versions: 1 2 3 4 5 6 7 8 9 10 11 12 13 14 15 16 17 18 19 20 21 22 23 24 25 26 27 28 29 30 31 32 33 34 35 36 37 38 39 40 41 42 43 44 45 46 47 48 49 50
000
ASUS45 KABQ 292301
RWRNM
NEW MEXICO REGIONAL WEATHER ROUNDUP
NATIONAL WEATHER SERVICE ALBUQUERQUE NM
500 PM MDT WED JUL 29 2015

NOTE: "FAIR" MEANS FEW OR NO CLOUDS BELOW 12,000 FEET AGL WITH NO
       SIGNIFICANT WEATHER OR OBSTRUCTIONS TO VISION.

      THIS PRODUCT IS RELEASED AS TWO VERSIONS.  ONE VERSION NEAR
      THE TOP OF THE HOUR CONTAINING PRELIMINARY DATA FROM ALBUQUERQUE
      AND OTHER STATIONS.  A FINAL VERSION WITH ADDITIONAL DATA IS
      ISSUED ABOUT 10 MINUTES AFTER THE HOUR.

NMZ501-503-504-510>518-300000-
NORTHWEST PLATEAU/NORTHCENTRAL MOUNTAINS

CITY           SKY/WX    TMP DP  RH WIND       PRES   REMARKS
FARMINGTON     PTSUNNY   80  43  26 NE10      30.24F
SANTA FE       CLOUDY    78  51  38 SE9       30.33S
TAOS           PTSUNNY   63  48  59 E14       30.42S

$$
NMZ402-403-502-505>509-300000-
WESTCENTRAL MOUNTAINS/SOUTHWEST MOUNTAINS

CITY           SKY/WX    TMP DP  RH WIND       PRES   REMARKS
GALLUP         CLOUDY    81  39  22 NE14G21   30.31F
SILVER CITY      N/A     84  54  34 S7        30.22F

$$
NMZ407-409-411-412-300000-
SOUTHERN DESERTS

CITY           SKY/WX    TMP DP  RH WIND       PRES   REMARKS
DEMING         MOSUNNY   89  53  29 S5        30.11F
ALAMOGORDO     LGT RAIN  72  64  78 SE16      30.16S
T OR C         MOSUNNY   88  55  32 W8        30.16F

$$
NMZ519>523-300000-
CENTRAL VALLEYS/CENTRAL HIGHLANDS

CITY           SKY/WX    TMP DP  RH WIND       PRES   REMARKS
ALBUQUERQUE    CLOUDY    73  62  68 N8        30.27F
DOUBLE EAGLE   PTSUNNY   72  61  68 E9        30.31S
CLINES CORNERS PTSUNNY   75  54  47 E15       30.37S
BELEN          CLOUDY    73  60  65 NE9       30.25S
SOCORRO        NOT AVBL

$$
NMZ524>526-539-540-300000-
SOUTHCENTRAL MOUNTAINS

CITY           SKY/WX    TMP DP  RH WIND       PRES   REMARKS
RUIDOSO          N/A    N/A N/A N/A MISG        N/A

$$
NMZ527>531-300000-
NORTHEAST HIGHLANDS/NORTHEAST PLAINS

CITY           SKY/WX    TMP DP  RH WIND       PRES   REMARKS
LAS VEGAS      PTSUNNY   75  55  49 MISG      30.38F
RATON          TSTM      59  56  89 W6        30.41R FOG
CLAYTON        SUNNY     81  57  43 E10       30.28F

$$
NMZ532>537-300000-
EASTCENTRAL PLAINS

CITY           SKY/WX    TMP DP  RH WIND       PRES   REMARKS
TUCUMCARI      MOSUNNY   87  61  41 E10       30.18F
CANNON AFB     NOT AVBL
CLOVIS AIRPORT SUNNY     84  61  45 E9        30.20F

$$
NMZ028-029-538-300000-
SOUTHEAST PLAINS

CITY           SKY/WX    TMP DP  RH WIND       PRES   REMARKS
ROSWELL        PTSUNNY   93  57  29 E13       30.10F
ARTESIA        MOSUNNY   95  54  24 E10G16    30.10S
CARLSBAD       MOSUNNY   92  58  31 N9        30.05F
HOBBS          PTSUNNY   77  66  69 S13G23    30.13R


$$



USA.gov is the U.S. government's official web portal to all federal, state and local government web resources and services.